TimeMST,TemperatureF,Dew PointF,Humidity,Sea Level PressureIn,VisibilityMPH,Wind Direction,Wind SpeedMPH,Gust SpeedMPH,PrecipitationIn,Events,Conditions,WindDirDegrees,DateUTC
12:53 AM,-9.9,-17.0,71,30.87,10.0,Calm,Calm,-,N/A,,Clear,0,2014-02-05 07:53:00
1:53 AM,-11.0,-18.0,71,30.88,10.0,West,8.1,-,N/A,,Clear,260,2014-02-05 08:53:00
2:53 AM,-14.1,-20.0,75,30.89,10.0,WSW,8.1,-,N/A,,Clear,240,2014-02-05 09:53:00
3:53 AM,-15.0,-22.0,71,30.90,10.0,WSW,5.8,-,N/A,,Clear,250,2014-02-05 10:53:00
4:53 AM,-13.0,-20.0,71,30.91,10.0,WSW,9.2,-,N/A,,Overcast,240,2014-02-05 11:53:00
5:53 AM,-11.9,-18.9,71,30.91,10.0,WSW,8.1,-,N/A,,Overcast,250,2014-02-05 12:53:00
6:53 AM,-11.0,-18.0,71,30.91,7.0,West,9.2,-,N/A,,Overcast,260,2014-02-05 13:53:00
7:53 AM,-11.0,-17.0,75,30.92,9.0,West,10.4,-,N/A,,Overcast,260,2014-02-05 14:53:00
8:53 AM,-9.9,-16.1,74,30.93,10.0,West,12.7,-,N/A,,Mostly Cloudy,270,2014-02-05 15:53:00
9:53 AM,-6.0,-14.1,68,30.92,10.0,WSW,12.7,-,N/A,,Scattered Clouds,250,2014-02-05 16:53:00
10:53 AM,-0.0,-11.9,57,30.90,10.0,WNW,11.5,-,N/A,,Clear,300,2014-02-05 17:53:00
11:53 AM,-0.0,-11.9,57,30.88,10.0,WNW,12.7,-,N/A,,Scattered Clouds,300,2014-02-05 18:53:00
12:04 PM,-0.0,-11.9,57,30.69,10.0,NW,12.7,-,N/A,,Mostly Cloudy,310,2014-02-05 19:04:00
12:53 PM,-0.0,-11.9,57,30.87,10.0,WNW,10.4,-,N/A,,Mostly Cloudy,290,2014-02-05 19:53:00
1:53 PM,-0.0,-13.0,54,30.85,10.0,WNW,13.8,-,N/A,,Scattered Clouds,290,2014-02-05 20:53:00
2:04 PM,-0.0,-11.9,57,30.66,10.0,NW,16.1,21.9,N/A,,Mostly Cloudy,310,2014-02-05 21:04:00
2:53 PM,-0.0,-11.9,57,30.85,10.0,NW,15.0,-,N/A,,Overcast,310,2014-02-05 21:53:00
3:45 PM,1.0,-11.0,57,30.65,10.0,NW,12.7,-,N/A,,Overcast,310,2014-02-05 22:45:00
3:53 PM,1.0,-9.9,60,30.84,10.0,WNW,13.8,-,N/A,,Overcast,300,2014-02-05 22:53:00
4:53 PM,1.0,-9.9,60,30.83,10.0,NW,11.5,-,N/A,,Overcast,310,2014-02-05 23:53:00
5:53 PM,-0.0,-9.9,63,30.82,10.0,WNW,8.1,-,N/A,,Overcast,300,2014-02-06 00:53:00
6:53 PM,-5.1,-13.0,69,30.82,10.0,WNW,6.9,-,N/A,,Clear,290,2014-02-06 01:53:00
7:53 PM,-8.0,-15.0,71,30.82,10.0,West,3.5,-,N/A,,Partly Cloudy,270,2014-02-06 02:53:00
8:53 PM,-9.0,-15.0,75,30.81,10.0,West,8.1,-,N/A,,Partly Cloudy,270,2014-02-06 03:53:00
9:53 PM,-9.0,-16.1,71,30.79,10.0,WSW,9.2,-,N/A,,Clear,240,2014-02-06 04:53:00
10:53 PM,-11.0,-17.0,75,30.76,10.0,WSW,9.2,-,N/A,,Clear,240,2014-02-06 05:53:00
11:53 PM,-11.9,-18.0,74,30.75,10.0,West,9.2,-,N/A,,Clear,260,2014-02-06 06:53:00